Regional Weather Roundup
Issued by NWS

Home | Current Version | Previous Version | Graphics & Text | Print | Product List | Glossary On
Versions: 1 2 3 4 5 6 7 8 9 10 11 12 13 14 15 16 17 18 19 20 21 22 23 24 25 26 27 28 29 30 31 32 33 34 35 36 37 38 39 40 41 42 43 44 45 46 47 48 49 50
000
ASUS43 KLMK 230602
RWRKY
KENTUCKY REGIONAL WEATHER ROUNDUP
NATIONAL WEATHER SERVICE LOUISVILLE KY
200 AM EDT SUN APR 23 2017

NOTE "FAIR" INDICATES FEW OR NO CLOUDS BELOW 12,000 FEET
WITH NO SIGNIFICANT WEATHER AND/OR OBSTRUCTIONS TO VISIBILITY.

KYZ001>023-026-027-061>063-070>075-230700-
WESTERN AND SOUTH CENTRAL KENTUCKY

CITY           SKY/WX    TMP DP  RH WIND       PRES   REMARKS
PADUCAH        CLOUDY    52  42  69 NE10      29.97F
HENDERSON      CLOUDY    52  40  63 NE10      30.00F
OWENSBORO      CLOUDY    51  41  68 NE9       29.99F
HOPKINSVILLE   CLOUDY    51  45  81 NE15      29.90F
BOWLING GREEN  CLOUDY    52  46  80 NE14      29.94F
GLASGOW        NOT AVBL
$$

KYZ024-025-028>034-038-045-046-053-230700-
NORTH CENTRAL KENTUCKY

CITY           SKY/WX    TMP DP  RH WIND       PRES   REMARKS
LOUISVILLE/SDF PTCLDY    48  38  68 NE8       30.01F
LOUISVILLE/LOU PTCLDY    48  37  65 N5        30.02F
FORT KNOX      CLOUDY    49  40  70 N10       29.97F
$$

KYZ035>037-039>044-047>052-055>060-089>105-230700-
NORTHEAST KENTUCKY

CITY           SKY/WX    TMP DP  RH WIND       PRES   REMARKS
LEXINGTON      MOCLDY    46  39  76 NE15      29.99F
COVINGTON      CLEAR     46  35  65 NE14      30.05F
FRANKFORT      CLEAR     47  37  68 NE13      29.99F
$$

KYZ054-064>069-076>088-106>120-230700-
SOUTHEAST KENTUCKY

CITY           SKY/WX    TMP DP  RH WIND       PRES   REMARKS
JACKSON        CLOUDY    47  44  90 MISG      29.96F
LONDON         CLOUDY    48  45  89 NE12      29.94F
SOMERSET       LGT RAIN  46  46 100 E7        29.95F
MIDDLESBORO    CLOUDY    52  51  97 E3        29.92R
MONTICELLO     LGT RAIN  49  48  97 N10G21    29.95S
$$




USA.gov is the U.S. government's official web portal to all federal, state and local government web resources and services.